{"data":{"norad_id":64774,"intl_designator":"2025-147V","name":"STARLINK-34621","alt_names":[],"object_type":"PAYLOAD","status":"ACTIVE","operator":null,"country":"US","launch_date":"2025-07-08","launch_site_code":"AFETR","launch_vehicle":null,"mission":null,"orbit_class":"UNKNOWN","rcs_meters":null,"size_class":null,"mass_kg":null,"dimensions":null,"purposes":["comms"],"wikipedia_slug":null,"has_3d_model":false,"image_url":null,"decayed_at":null,"tle_current":{"epoch":"2026-09-20T21:17:47.570496Z","epoch_age_seconds":94502,"freshness":"FRESH","line1":"1 64774U 25147V   26263.88735614  .00014170  00000+0  42965-3 0  9999","line2":"2 64774  53.1610  55.6332 0000673  76.9756 283.1322 15.34404794 68574","mean_motion":15.34404794,"eccentricity":6.73e-5,"inclination_deg":53.161,"raan_deg":55.6332,"arg_perigee_deg":76.9756,"mean_anomaly_deg":283.1322,"bstar":0.00042965,"rev_number":6857,"period_min":93.847464869169,"perigee_km":462.22860387669,"apogee_km":463.14937905514,"semimajor_km":6840.8259914659,"source":"CELESTRAK","updated_at":"2026-09-21T09:00:35.440019Z"}}}